Powrót do katalogu

STARLINK-37239

AktywnyŁącznośćVLEO
NORAD 100018·PAYLOAD·🇺🇸 United States

Wystrzelony Jul 14, 2026 z Vandenberg Space Force Base

Loading…

Następne Przeloty (najbliższe 24 godziny)

TLE

ŚwieżeSource: Space-Track

Epoka: Sep 14, 2026, 20:17 UTC

1 A0018U 26160T   26257.84526248  .00313946  00000-0  18095-2 0  9996
2 A0018  70.0020 210.8318 0003066 270.9120  89.1728 15.77643020 11102

Śledź STARLINK-37239 w czasie rzeczywistym z AllMySat

Download on the App Store